• MPC Preparation (Info)

  • MPEC 2024-G209 : 2024 GB6

    The following Minor Planet Electronic Circular may be linked-to from your own Web pages, but must not otherwise be redistributed electronically.

    A form allowing access to any MPEC is at the bottom of this page.


    Read MPEC 2024-G208 Read MPEC 2024-G210


    M.P.E.C. 2024-G209                               Issued 2024 April 14, 23:11 UT
    
         The Minor Planet Electronic Circulars contain information on unusual
             minor planets, routine data on comets and natural satellites,
             and occasional editorial announcements.  They are published
        on behalf of Division F of the International Astronomical Union by the
              Minor Planet Center, Smithsonian Astrophysical Observatory,
                              Cambridge, MA 02138, U.S.A.
    			  
                 Prepared using the Tamkin Foundation Computer Network
    
                                  MPC@CFA.HARVARD.EDU
                URL https://www.minorplanetcenter.net/    ISSN 1523-6714
    
                                    2024 GB6                                 
    
    
    Observations:
         K24G06B*1C2024 04 14.23823810 55 10.890+43 18 56.60         19.47GVEG209G96
         K24G06B 1C2024 04 14.24877810 55 34.230+43 26 09.60         19.16GVEG209G96
         K24G06B 1C2024 04 14.25404510 55 45.890+43 29 44.20         20.77GVEG209G96
         K24G06B KC2024 04 14.26999310 56 21.678+43 40 34.36         19.44GVEG209I52
         K24G06B KC2024 04 14.27080710 56 23.514+43 41 07.22         19.27GVEG209I52
         K24G06B KC2024 04 14.27162010 56 25.328+43 41 40.24         20.64GVEG209I52
         K24G06B KC2024 04 14.27243210 56 27.200+43 42 13.43         19.60GVEG209I52
         K24G06B  C2024 04 14.28218210 56 46.822+43 48 16.73         19.8 GVEG209H01
         K24G06B  C2024 04 14.28614910 56 55.983+43 50 56.72         19.9 GVEG209H01
         K24G06B  C2024 04 14.30094310 57 30.374+44 00 50.98         19.6 GVEG209H01
         K24G06B  C2024 04 14.30449910 57 38.715+44 03 13.35         18.9 GVEG209H01
         K24G06B KC2024 04 14.36003110 59 54.413+44 40 34.43         19.51GVEG209I52
         K24G06B KC2024 04 14.36084410 59 56.440+44 41 05.89         20.09GVEG209I52
         K24G06B KC2024 04 14.36165710 59 58.409+44 41 38.22         19.26GVEG209I52
         K24G06B KC2024 04 14.36247811 00 00.500+44 42 10.94         20.08GVEG209I52
         K24G06B KB2024 04 14.80614 11 23 14.60 +49 45 13.9                ZEG209106
         K24G06B KB2024 04 14.80994 11 23 26.07 +49 47 49.5                ZEG209106
         K24G06B KB2024 04 14.81375 11 23 37.62 +49 50 24.4                ZEG209106
         K24G06B KB2024 04 14.81785 11 23 49.99 +49 53 12.4                ZEG209106
         K24G06B KC2024 04 14.83401211 24 39.28 +50 04 15.8          20.0 GVEG209L01
         K24G06B KC2024 04 14.83514211 24 42.73 +50 05 01.6          19.8 GVEG209L01
         K24G06B KC2024 04 14.83636611 24 46.47 +50 05 51.2          19.8 GVEG209L01
         K24G06B KC2024 04 14.83740211 24 49.63 +50 06 33.0          19.6 GVEG209L01
         K24G06B IC2024 04 14.83853611 24 53.10 +50 07 18.7          20.3 GVEG209L01
         K24G06B KB2024 04 14.86803011 26 36.42 +50 26 53.8          19.5 GXEG209I93
         K24G06B KB2024 04 14.87098111 26 45.45 +50 28 53.4          19.7 GXEG209I93
         K24G06B KB2024 04 14.87384511 26 54.28 +50 30 48.4          20.0 GXEG209I93
         K24G06B KB2024 04 14.87572 11 26 51.36 +50 32 10.7          19.1 GXEG209G15
         K24G06B KB2024 04 14.88433 11 27 17.97 +50 37 52.2          19.4 GXEG209G15
         K24G06B KC2024 04 14.88626 11 27 22.27 +50 39 18.1                VEG209104
         K24G06B KC2024 04 14.89301 11 27 43.12 +50 43 44.2          19.2 GVEG209104
         K24G06B KC2024 04 14.89972 11 28 03.92 +50 48 08.0                VEG209104
    
    Observer details:
    104 San Marcello Pistoiese.  Observers P. Bacci, M. Maestripieri.  Measurer P.
        Bacci.  0.60-m f/4.0 reflector + CCD.
    106 Crni Vrh.  Observer H. Mikuz.  0.60-m f/3.3 reflector + CMO.
    G15 Magroforte Observatory, Alessandria.  Observer A. De Pieri.  0.23-m f/6.7
        SC + CMO.
    G96 Mt. Lemmon Survey.  Observer K. W. Wierzchos.  Measurers T. Beuden, V. F.
        Carvajal, D. Fay, J. B. Fazekas, D. C. Fuls, A. R. Gibbs, A. D. Grauer, H.
        Groeller, J. K. Hogan, R. A. Kowalski, S. M. Larson, G. J. Leonard, D.
        Rankin, R. L. Seaman, F. C. Shelly, K. W. Wierzchos.  1.5-m reflector +
        10K CCD.
    H01 Magdalena Ridge Observatory, Socorro.  Observers W. H. Ryan, E. V. Ryan.
        Measurer W. H. Ryan.  2.4-m f/8.9 Ritchey-Chretien + CCD.
    I52 Steward Observatory, Mt. Lemmon Station.  Observer D. Rankin.  Measurers
        T. Beuden, V. F. Carvajal, D. Fay, J. B. Fazekas, D. C. Fuls, A. R. Gibbs,
        A. D. Grauer, H. Groeller, J. K. Hogan, R. A. Kowalski, S. M. Larson, G.
        J. Leonard, D. Rankin, R. L. Seaman, F. C. Shelly, K. W. Wierzchos.  1.0-m
        prime focus + CCD.
    I93 St Pardon de Conques.  Observer F. Losse.  0.40-m f/3.7 reflector + CCD.
    L01 Visnjan Observatory, Tican.  Observer K. Korlevic.  1.0-m f/2.9 reflector
        + CCD.
    
    Orbital elements:
    2024 GB6                                                 Earth MOID = 0.0079 AU
    Epoch 2024 Mar. 31.0 TT = JDT 2460400.5                 Veres                   
    M 345.25003              (2000.0)            P               Q                  
    n   0.63854526     Peri.   12.92164     -0.83326702     +0.55135741             
    a   1.3355954      Node   200.69747     -0.51698179     -0.80324921             
    e   0.2469629      Incl.    6.64180     -0.19594872     -0.22537903             
    P   1.54           H   27.29          G   0.15           U   7                  
    Residuals in seconds of arc
    240414 G96  0.1-  0.2+    240414 I52  0.5+  0.5+    240414 L01  0.1-  0.3+
    240414 G96  0.3+  0.5+    240414 I52  0.6+  0.1-    240414 L01  0.2+  0.2+
    240414 G96  0.4-  0.4-    240414 I52  0.0   0.3+    240414 I93  0.3+  0.3-
    240414 I52  0.2-  0.3-    240414 I52  0.6+  0.7+    240414 I93  0.4-  0.4+
    240414 I52  0.2-  0.4-    240414 106  0.2+  0.7+    240414 I93  0.6-  0.0
    240414 I52  0.5-  0.5-    240414 106  0.3+  0.7+    240414 G15  0.7+  0.4-
    240414 I52  0.1-  0.2-    240414 106  0.7+  0.1-    240414 G15  0.9+  0.8-
    240414 H01  0.3-  0.2-    240414 106  0.5+  0.7+    240414 104  0.5+  0.2-
    240414 H01  0.0   0.1-    240414 L01  0.6-  0.2+    240414 104  0.1-  0.3-
    240414 H01  0.0   0.0     240414 L01  0.4-  0.3+    240414 104  0.7-  0.1-
    240414 H01  0.0   0.0     240414 L01  0.2-  0.4+
    
    Ephemeris:
    2024 GB6                 a,e,i = 1.34, 0.25, 7                   q = 1.0058
    Date    TT    R. A. (2000) Decl.     Delta      r    Elong.  Phase     V
    2024 03 15    08 50 18.5 -23 13 01   0.09192 1.0577   131.5    44.7    23.9
    ...
    2024 03 30    08 51 05.3 -17 23 25   0.04840 1.0262   123.6    54.2    22.7
    ...
    2024 04 07    09 09 21.4 -05 26 45   0.02618 1.0150   121.7    57.0    21.5
    ...
    2024 04 13    10 14 56.5 +29 26 18   0.01321 1.0094   120.1    59.3    20.0
    2024 04 14    10 45 48.7 +40 31 09   0.01227 1.0087   117.4    62.0    20.0
    2024 04 15    11 34 01.1 +51 51 22   0.01201 1.0081   113.3    66.1    20.0
    ...
    2024 04 21    18 28 38.3 +56 22 28   0.02174 1.0058    91.7    87.0    22.0
    ...
    2024 04 29    19 39 30.6 +42 42 20   0.04311 1.0068    88.5    89.1    23.6
    ...
    2024 05 14    20 01 53.2 +35 30 25   0.08343 1.0211    94.9    80.5    24.8
    
    M. P. C. Staff               (C) Copyright 2024 MPC           M.P.E.C. 2024-G209
    


    Read MPEC 2024-G208 Read MPEC 2024-G210


    MPEC number:

    Enter an MPEC number in one of the following forms:

    • 1997-B01 (the full form)
    • J97B01 (the packed version of the full form)
    • B01 (the abbreviated form)